This is the latest recevied weather packets stored in our database for station/object K5UTC. If no packets are shown the sender has not sent any weather packets the latest 10 day(s).
| Time | Temp. | Humidity | Pressure | Rain* | Wind** | Luminosity | Snow |
|---|---|---|---|---|---|---|---|
| 1778185661 | 21.67° C | 54% | 1012.9 hPa | 0 mm | - | 681 W/m² | - |
| 1778185357 | 21.67° C | 57% | 1012.9 hPa | 0 mm | - | 336 W/m² | - |
| 1778185052 | 21.67° C | 52% | 1013 hPa | 0 mm | - | 759 W/m² | - |
| 1778184750 | 22.22° C | 59% | 1013.2 hPa | 0 mm | - | 268 W/m² | - |
| 1778184446 | 22.22° C | 57% | 1012.8 hPa | 0 mm | - | 720 W/m² | - |
| 1778184142 | 21.11° C | 59% | 1013.2 hPa | 0 mm | - | 507 W/m² | - |
| 1778183838 | 22.22° C | 53% | 1013 hPa | 0 mm | - | 668 W/m² | - |
| 1778183536 | 22.78° C | 54% | 1013.3 hPa | 0 mm | - | 807 W/m² | - |
| 1778183232 | 21.67° C | 57% | 1013 hPa | 0 mm | - | 790 W/m² | - |
| 1778182929 | 21.67° C | 56% | 1013 hPa | 0 mm | - | 631 W/m² | - |
| 1778182625 | 21.11° C | 56% | 1012.9 hPa | 0 mm | - | 841 W/m² | - |
| 1778182322 | 21.67° C | 56% | 1012.9 hPa | 0 mm | - | 829 W/m² | - |
| 1778182018 | 22.22° C | 58% | 1013 hPa | 0 mm | - | 948 W/m² | - |
| 1778181716 | 21.11° C | 59% | 1013.3 hPa | 0 mm | - | 866 W/m² | - |
| 1778181411 | 21.11° C | 59% | 1012.9 hPa | 0 mm | - | 366 W/m² | - |
| 1778181108 | 20.56° C | 57% | 1013.2 hPa | 0 mm | - | 861 W/m² | - |
| 1778180805 | 20° C | 57% | 1013 hPa | 0 mm | - | 816 W/m² | - |
| 1778180504 | 20.56° C | 58% | 1013 hPa | 0 mm | - | 868 W/m² | - |
| 1778180202 | 21.67° C | 57% | 1013 hPa | 0 mm | - | 251 W/m² | - |
| 1778179898 | 21.11° C | 61% | 1013 hPa | 0 mm | - | 884 W/m² | - |
| 1778179596 | 21.11° C | 60% | 1012.9 hPa | 0 mm | - | 876 W/m² | - |
| 1778179294 | 20.56° C | 62% | 1013 hPa | 0 mm | - | 860 W/m² | - |
| 1778178990 | 20.56° C | 62% | 1013.4 hPa | 0 mm | - | 906 W/m² | - |
| 1778178687 | 20° C | 61% | 1013.3 hPa | 0 mm | - | 877 W/m² | - |
| 1778178383 | 18.89° C | 63% | 1013.5 hPa | 0 mm | - | 770 W/m² | - |
* Rain latest hour (hover to see other rain measurements)
** Current wind speed in m/s (hover to see current wind gust speed)